Torna al catalogo

COSMOS 448

AttivoMilitareLEO
NORAD 5551·PAYLOAD·🇷🇺 Russia

Lanciato Oct 13, 1971 da Plesetsk Cosmodrome

Loading…

Prossimi Passaggi (prossime 24 ore)

TLE

AggiornatoSource: Space-Track

Epoca: Sep 14, 2026, 08:39 UTC

1 05551U 71086E   26257.36102498 -.00000024  00000-0 -61350-4 0  9990
2 05551  74.0311  22.7416 0048644  57.9986 329.4768 12.46764356499584

Traccia COSMOS 448 in tempo reale con AllMySat

Download on the App Store